Lid_Strength_Index
8 11 13 12 11 12 13 14 14 13 9 11 12 12 10 9 12 13 13 13 12 8 5 4 3 2 4 3 2 2 2 2 2 2 2 2 3 2 2 1 2 2 2 2
11 13 10 9 10 11 12 14 14 12 10 11 12 12 10 9 10 10 10 11 13 12 9 7 5 4 2 3 2 2 2 2 2 1 1 2 2 2 2 1 2 2 2 2
12 11 9 10 12 13 12 14 13 14 11 11 12 13 12 9 9 9 9 9 10 11 11 11 6 5 3 3 3 2 2 2 1 1 1 3 2 3 3 3 2 2 2 2
11 9 10 11 12 11 15 11 11 12 13 17 13 18 13 11 9 9 9 8 8 10 11 10 10 6 4 3 3 3 2 2 1 1 2 2 2 3 1 1 1 2 2 2
13 11 12 13 12 10 13 10 12 12 15 16 16 17 16 12 11 9 9 9 8 7 8 9 9 8 5 4 3 3 3 2 2 2 2 2 2 2 1 1 2 2 2 2
10 10 9 10 10 9 9 12 12 12 14 19 14 16 16 14 13 10 10 9 7 7 8 8 8 9 7 5 4 3 4 3 3 3 2 3 2 2 2 3 3 2 2 2
12 12 10 9 12 10 10 14 19 20 20 20 14 16 14 13 11 11 11 9 8 7 8 9 10 10 9 7 5 4 4 4 3 3 3 3 3 2 2 3 3 2 2 2
15 17 11 9 11 13 13 14 18 23 21 19 15 18 14 11 10 10 11 9 9 10 9 9 10 11 10 8 5 4 4 4 4 3 3 2 3 3 3 2 2 2 2 2
16 16 12 10 9 10 14 15 12 17 16 19 17 15 12 10 11 11 11 11 10 9 8 10 11 11 10 9 6 5 4 4 4 3 3 3 3 3 2 2 2 2 2 2
12 17 12 11 10 10 12 10 16 16 21 22 18 17 16 14 13 12 12 10 9 9 10 10 11 11 10 9 7 5 4 4 4 3 3 3 3 2 2 3 3 3 3 3
11 13 13 11 13 13 13 14 14 14 16 20 20 17 12 12 10 10 9 9 10 11 11 11 11 11 11 9 7 6 4 3 3 3 3 3 3 2 2 3 3 3 3 3
10 12 18 15 12 11 10 12 12 16 18 16 16 16 11 11 11 12 12 11 13 13 13 13 12 12 12 9 8 7 5 4 3 3 3 3 3 2 2 3 3 3 3 3
9 14 21 17 13 11 13 12 12 12 13 17 19 16 11 12 14 14 14 12 13 14 13 14 13 13 13 10 8 7 5 4 4 3 2 2 3 2 2 3 3 4 4 4
7 12 15 19 16 14 15 13 12 13 17 16 15 14 12 10 10 11 12 12 12 12 12 14 14 13 13 12 9 8 7 6 5 4 4 4 4 3 3 3 5 6 7 7
10 15 14 13 14 14 14 15 14 14 13 16 14 13 11 10 10 9 8 7 7 7 7 11 13 13 12 12 12 10 8 9 8 6 5 5 5 5 7 7 8 9 8 9
10 18 15 18 14 14 15 14 15 15 14 14 13 13 10 9 8 8 8 8 9 9 8 9 13 13 12 11 11 11 10 10 9 8 7 8 9 8 8 9 10 10 12 12
12 15 16 24 16 15 18 17 15 15 14 14 16 13 10 10 10 9 8 8 8 7 7 7 9 12 12 11 11 12 12 12 10 11 11 10 11 11 11 12 12 12 12 14
14 18 21 26 24 27 17 14 13 14 13 11 11 11 10 10 9 8 7 8 7 7 7 8 10 11 11 11 11 12 12 13 13 14 14 13 12 12 13 12 13 14 14 15
12 14 20 24 31 20 15 15 13 13 13 10 10 11 11 9 8 9 7 6 6 6 6 6 9 10 11 11 11 12 14 13 14 15 15 14 13 13 13 13 14 15 15 15
12 13 18 26 27 27 18 15 12 11 17 11 11 11 11 11 13 11 7 6 6 7 6 7 10 11 11 11 12 13 14 14 14 14 15 14 13 14 13 14 15 18 15 16
15 14 16 17 18 20 15 13 9 17 15 11 9 9 9 10 9 7 6 7 6 7 7 9 11 11 10 13 12 12 13 13 13 15 16 16 15 15 14 15 16 15 16 17
16 16 17 15 18 20 12 12 14 11 11 11 9 9 9 9 9 8 9 8 8 7 7 11 11 12 12 13 12 13 13 13 14 14 15 16 15 14 14 14 15 16 17 18
17 15 17 15 15 12 12 11 8 9 9 9 10 8 9 9 9 9 9 9 9 9 9 13 13 14 15 14 13 13 12 13 13 15 14 14 14 15 15 15 17 17 18 18
15 12 13 15 12 12 11 10 10 9 9 9 9 9 8 9 9 10 11 11 11 11 11 15 14 14 14 14 14 14 14 13 14 15 15 15 16 17 16 16 17 17 18 18
14 13 14 14 12 13 11 11 10 9 9 9 9 9 8 9 10 10 10 11 12 13 13 16 13 13 13 14 14 15 14 14 14 15 16 15 16 17 18 19 18 18 20 16
13 13 14 15 12 11 11 9 8 9 9 8 9 9 8 9 10 11 11 12 14 14 15 16 15 15 15 14 15 15 15 14 15 16 16 16 17 18 18 19 19 16 16 15